Regional Weather Roundup
Issued by NWS

Home | Current Version | Previous Version | Text Only | Print | Product List | Glossary On
Versions: 1 2 3 4 5 6 7 8 9 10 11 12 13 14 15 16 17 18 19 20 21 22 23 24 25 26 27 28 29 30 31 32 33 34 35 36 37 38 39 40 41 42 43 44 45 46 47 48 49 50
000
ASUS44 KOUN 240110
RWROK

WEATHER ROUNDUP FOR OKLAHOMA
NATIONAL WEATHER SERVICE NORMAN OK
800 PM CDT TUE MAY 23 2017

NOTE: "FAIR" INDICATES FEW OR NO CLOUDS BELOW 12,000 FEET WITH NO
      SIGNIFICANT WEATHER AND/OR OBSTRUCTIONS TO VISIBILITY.

OKZ001>007-009>012-014-015-017-240200-
NORTHWEST OKLAHOMA AND THE PANHANDLE

CITY           SKY/WX    TMP DP  RH WIND       PRES   REMARKS
GAGE           CLOUDY    63  42  46 N12       29.96S
GUYMON         MOCLDY    63  39  41 N14       30.00F
ENID/WOODRING  LGT RAIN  59  50  72 N15G23    29.90R
$$

OKZ016-021>023-033>039-044-045-240200-
SOUTHWEST OKLAHOMA

CITY           SKY/WX    TMP DP  RH WIND       PRES   REMARKS
LAWTON/REGL    CLEAR     68  43  40 NW13G21   29.90S
LAWTON/FT SILL CLEAR     67  47  47 N9        29.89R
FREDERICK      CLEAR     68  42  38 N16       29.90R
CLINTON        CLOUDY    65  43  44 NW10      29.95S
HOBART         CLEAR     66  44  45 NW9       29.93F
$$

OKZ018>020-024>031-240200-
CENTRAL OKLAHOMA

CITY           SKY/WX    TMP DP  RH WIND       PRES   REMARKS
OKLAHOMA CITY  PTCLDY    64  43  46 NW10      29.88S
OKC/WILEY POST CLOUDY    65  45  48 NW9       29.88S
OKC/TINKER AFB PTCLDY    66  42  41 NW12G21   29.86S
STILLWATER     CLOUDY    63  44  50 NW9       29.87R
GUTHRIE        CLOUDY    65  44  46 VRB7      29.88R
$$

OKZ008-013-054>072-240200-
NORTHEAST OKLAHOMA

CITY           SKY/WX    TMP DP  RH WIND       PRES   REMARKS
TULSA          MOCLDY    67  46  47 NW14      29.80R
TULSA/JONES    PTCLDY    68  45  43 NW6       29.82R
PONCA CITY     CLOUDY    58  47  66 NW5       29.88R
BARTLESVILLE   CLOUDY    62  45  53 CALM      29.85R
MUSKOGEE       CLOUDY    64  53  67 W7        29.82S
$$

OKZ032-040>043-046>053-073>077-240200-
SOUTH CENTRAL/SOUTHEAST OKLAHOMA

CITY           SKY/WX    TMP DP  RH WIND       PRES   REMARKS
ARDMORE/DWNTWN PTCLDY    63  50  63 NW3       29.87S
MCALESTER      CLOUDY    65  54  67 W5        29.84S
$$





USA.gov is the U.S. government's official web portal to all federal, state and local government web resources and services.